Flag for Belgium Weather past 2 weeks in Charleroi, Belgium

Now
59 °F

Passing clouds.


Feels Like: 59 °F
Forecast: 46 / 67 °F
Wind: 5 mph from Southwest

Location: Charleroi / Gosselies

Current Time: May 22, 2015 at 11:18:24 AM

Latest Report: May 22, 2015 at 10:50 AM


Visibility: N/A

Pressure: 30.33 "Hg

Humidity: 51%

Dew point: 41 °F

Location of CharleroiLocation

Historic Weather in Charleroi — Graph

°F

Charleroi temperature yesterday

Maximum temperature yesterday: 63 °F (at 4:20 PM)
Minimum temperature yesterday: 41 °F (at 4:50 AM)
Average temperature yesterday: 52 °F

Past Weeks' High & Low Weather Summary

 TemperatureHumidityPressure
High77 °F (May 11, 4:50 PM)100% (May 14, 11:50 PM)30.36 "Hg (May 14, 11:50 PM)
Low41 °F (May 20, 4:20 AM)34% (May 11, 5:50 PM)29.71 "Hg (May 18, 5:50 PM)
Average54 °F70%30.08 "Hg
* Reported May 7 9:20 AM — May 22 9:50 AM, Charleroi, Weather by CustomWeather, © 2015

Note: Actual official high and low records may vary slightly from our data, if they occured in-between our weather recording intervals... More about our weather records

Advertising

Charleroi weather history for previous 24 hours

 ConditionsComfort  
Time TempWeatherWind HumidityBarometerVisibility
9:50 AM
Fri, May 22
57 °FPassing clouds.6 mph63%30.33 "HgN/A
9:20 AM54 °FPassing clouds.6 mph72%30.33 "HgN/A
8:50 AM54 °FSunny.6 mph72%30.33 "Hg10 mi
8:20 AM52 °FSunny.6 mph77%30.33 "Hg10 mi
7:50 AM50 °FSunny.7 mph82%30.33 "Hg10 mi
7:20 AM50 °FSunny.6 mph82%30.33 "Hg10 mi
6:50 AM48 °FSunny.6 mph82%30.33 "Hg10 mi
6:20 AM48 °FClear.5 mph82%30.33 "Hg10 mi
5:50 AM48 °FClear.3 mph82%30.33 "Hg10 mi
5:20 AM50 °FClear.5 mph76%30.33 "Hg10 mi
4:50 AM50 °FClear.5 mph76%30.33 "Hg10 mi
4:20 AM50 °FClear.7 mph76%30.36 "Hg10 mi
3:50 AM50 °FClear.5 mph76%30.36 "Hg10 mi
3:20 AM50 °FClear.5 mph76%30.36 "Hg10 mi
2:50 AM50 °FPassing clouds.3 mph76%30.36 "HgN/A
2:20 AM50 °FPassing clouds.5 mph76%30.36 "HgN/A
1:50 AM52 °FPassing clouds.6 mph72%30.36 "HgN/A
1:20 AM52 °FClear.5 mph67%30.36 "Hg10 mi
12:50 AM52 °FClear.5 mph67%30.36 "Hg10 mi
12:20 AM52 °FClear.2 mph67%30.36 "Hg10 mi
11:50 PM
Thu, May 21
52 °FClear.2 mph62%30.36 "Hg10 mi
11:20 PM54 °FClear.2 mph58%30.36 "Hg10 mi
10:50 PM52 °FClear.2 mph62%30.36 "Hg10 mi
10:20 PM54 °FSunny.2 mph58%30.36 "Hg10 mi
9:50 PM55 °FSunny.2 mph47%30.33 "Hg10 mi
9:20 PM55 °FSunny.2 mph55%30.33 "Hg10 mi
8:50 PM57 °FPassing clouds.5 mph51%30.33 "HgN/A
8:20 PM59 °FPassing clouds.5 mph48%30.33 "HgN/A
7:50 PM59 °FPassing clouds.7 mph42%30.33 "HgN/A
7:20 PM61 °FPassing clouds.7 mph42%30.33 "HgN/A
6:50 PM61 °FPassing clouds.8 mph42%30.33 "HgN/A
6:20 PM61 °FPassing clouds.8 mph42%30.30 "HgN/A
5:50 PM61 °FPassing clouds.9 mph45%30.30 "HgN/A
5:20 PM59 °FPassing clouds.8 mph45%30.30 "HgN/A
4:50 PM61 °FPassing clouds.9 mph42%30.30 "HgN/A
4:20 PM63 °FPassing clouds.7 mph42%30.30 "HgN/A
3:50 PM59 °FPassing clouds.7 mph51%30.30 "HgN/A
3:20 PM61 °FPassing clouds.5 mph45%30.30 "HgN/A
2:50 PM61 °FPassing clouds.8 mph48%30.30 "HgN/A
2:20 PM57 °FPassing clouds.8 mph48%30.30 "HgN/A
1:50 PM59 °FPassing clouds.6 mph51%30.30 "HgN/A
1:20 PM57 °FScattered clouds.7 mph51%30.30 "HgN/A
12:50 PM57 °FScattered clouds.7 mph51%30.30 "HgN/A
12:20 PM55 °FScattered clouds.6 mph59%30.30 "HgN/A
11:50 AM57 °FPassing clouds.6 mph63%30.30 "HgN/A
11:20 AM57 °FPassing clouds.5 mph63%30.30 "HgN/A
Weather by CustomWeather, © 2015

See weather overviewHow to use our weather pages